Date,TemperatureHighF,TemperatureAvgF,TemperatureLowF,DewpointHighF,DewpointAvgF,DewpointLowF,HumidityHigh,HumidityAvg,HumidityLow,PressureMaxIn,PressureMinIn,WindSpeedMaxMPH,WindSpeedAvgMPH,GustSpeedMaxMPH,PrecipitationSumIn
2013-6-1,80,70,64,18,11,7,1,1,1,29.27,29.13,0,0,0,0.66
2013-6-2,79,66,58,18,8,2,1,1,1,29.35,29.16,0,0,0,0.01
2013-6-3,74,59,45,50,10,-8,45,10,1,29.46,29.35,0,0,0,0.00
2013-6-4,81,60,44,52,16,-9,45,15,1,29.51,29.42,0,0,0,0.00
2013-6-5,88,70,53,63,26,-2,45,18,1,29.45,29.23,0,0,0,0.00
2013-6-6,82,69,62,55,14,5,40,7,1,29.25,29.15,0,0,0,0.00
2013-6-7,79,67,58,36,9,-12,24,2,1,29.25,29.19,0,0,0,0.00
2013-6-8,84,70,56,56,18,0,40,9,1,29.38,29.25,0,0,0,0.00
2013-6-9,85,72,64,58,20,7,40,9,1,29.39,29.20,0,0,0,0.12
2013-6-10,79,71,64,18,12,7,1,1,1,29.23,29.14,0,0,0,0.31
2013-6-11,92,74,60,63,18,-10,39,5,1,29.34,29.23,0,0,0,0.00
2013-6-12,95,81,69,30,20,10,1,1,1,29.29,29.03,0,0,0,0.00
2013-6-13,84,73,63,46,16,5,32,4,1,29.35,28.98,0,0,0,0.78
2013-6-14,84,68,56,53,13,-13,36,5,1,29.45,29.31,0,0,0,0.00
2013-6-15,89,73,58,63,20,-14,43,10,1,29.47,29.30,0,0,0,0.00
2013-6-16,86,74,65,23,14,7,1,1,1,29.36,29.29,0,0,0,0.04
2013-6-17,91,76,65,61,18,-6,38,4,1,29.34,29.24,0,0,0,0.00
2013-6-18,89,75,63,56,18,-13,37,5,1,29.37,29.25,0,0,0,0.00
2013-6-19,86,72,59,60,21,2,41,10,1,29.48,29.37,0,0,0,0.00
2013-6-20,92,75,59,64,28,2,42,15,1,29.55,29.47,0,0,0,0.00
2013-6-21,94,79,67,65,31,-12,42,16,1,29.56,29.41,0,0,0,0.00
2013-6-22,97,77,69,66,17,-3,38,2,1,29.51,29.41,0,0,0,1.88
2013-6-23,91,74,66,27,14,8,1,1,1,29.48,29.40,0,0,0,0.00
2013-6-24,92,79,70,47,18,-8,22,3,1,29.50,29.36,0,0,0,0.00
2013-6-25,95,81,70,44,19,-7,18,2,1,29.39,29.23,0,0,0,0.07
2013-6-26,87,75,67,24,15,9,1,1,1,29.29,29.11,0,0,0,0.14
2013-6-27,92,79,68,28,18,9,1,1,1,29.17,29.07,0,0,0,0.00
2013-6-28,88,75,64,59,18,-15,39,4,1,29.08,28.97,0,0,0,0.00
2013-6-29,78,66,61,17,8,4,1,1,1,29.05,28.95,0,0,0,0.00
2013-6-30,78,68,64,17,10,6,1,1,1,29.25,29.05,0,0,0,0.00